Location: Alessandria
(44.9000°N, 8.6170°E)
Time: 03:03:20
(UTC+02:00)

ISS - Pass Details

Date: 12 May 2021
Orbit: 417 x 422 km, 51.6° (Epoch: 14 June)

Event Time Altitude Azimuth Distance (km) Brightness Sun altitude
Exits shadow 02:50:33 16° 314° (NW) 1,198 -1.3 -23.8°
Maximum altitude 02:52:26 25° 0° (N) 900 -1.5 -23.7°
Drops below altitude 10° 02:55:18 10° 58° (ENE) 1,509 -0.2 -23.5°
Sets 02:57:39 0° 72° (ENE) 2,374 0.7 -23.3°
